KG5VSR Weather Reports


Display with metric or nautical units.
time (UTC)temp
F
wind
direction
speed
MPH
gust
MPH
rain 1hr
in
rain 24hr
in
rain mn
in
humidity
%
barometer
mb
20260906004725 91 210 1.0 2.0 0.00 0.00 0.00 62 1012.1
20260906001724 94 197 3.0 3.0 0.00 0.00 0.00 55 1011.4
20260905234722 97 171 3.0 3.0 0.00 0.00 0.00 48 1011.1
20260905231721 98 62 2.0 3.0 0.00 0.00 0.00 47 1011.0
20260905224716 100 69 0.0 0.0 0.00 0.00 0.00 46 1010.8
20260905221712 99 93 3.0 3.0 0.00 0.00 0.00 46 1010.8
20260905214709 98 160 2.0 3.0 0.00 0.00 0.00 47 1011.1
20260905211708 100 9 3.0 7.0 0.00 0.00 0.00 46 1011.1
20260905204704 101 194 1.0 1.0 0.00 0.00 0.00 44 1011.7
20260905201704 98 182 1.0 2.0 0.00 0.00 0.00 47 1012.1
20260905194702 98 336 3.0 3.0 0.00 0.00 0.00 47 1012.6
20260905191659 100 262 1.0 1.0 0.00 0.00 0.00 45 1013.2
20260905184654 99 185 1.0 2.0 0.00 0.00 0.00 46 1013.6
20260905181650 99 84 2.0 2.0 0.00 0.00 0.00 47 1014.0
20260905174647 98 262 1.0 1.0 0.00 0.00 0.00 49 1015.0
20260905171641 97 18 0.0 1.0 0.00 0.00 0.00 49 1015.1
20260905164642 94 335 2.0 2.0 0.00 0.00 0.00 56 1015.3
20260905161640 93 287 0.0 0.0 0.00 0.00 0.00 59 1015.2
20260905154637 91 282 1.0 2.0 0.00 0.00 0.00 65 1015.2
20260905151632 89 202 2.0 2.0 0.00 0.00 0.00 70 1015.3
20260905144632 87 216 1.0 1.0 0.00 0.00 0.00 73 1015.2
20260905141630 85 174 1.0 1.0 0.00 0.00 0.00 75 1015.1
20260905134630 85 186 1.0 1.0 0.00 0.00 0.00 76 1015.1
20260905131625 84 137 0.0 1.0 0.00 0.00 0.00 78 1014.7
20260905124624 80 226 1.0 1.0 0.00 0.00 0.00 83 1014.4
20260905121625 77 346 0.0 0.0 0.00 0.00 0.00 88 1014.2
20260905114620 78 346 0.0 0.0 0.00 0.00 0.00 87 1014.1
20260905111617 78 138 0.0 0.0 0.00 0.00 0.00 87 1014.4
20260905104618 78 138 0.0 0.0 0.00 0.00 0.00 85 1013.9
20260905101617 79 138 0.0 0.0 0.00 0.00 0.00 83 1014.1
20260905094615 80 196 0.0 0.0 0.00 0.00 0.00 81 1014.4
20260905091611 80 166 0.0 0.0 0.00 0.00 0.00 81 1013.8
20260905084607 81 221 0.0 0.0 0.00 0.00 0.00 79 1013.5
20260905081607 82 289 0.0 0.0 0.00 0.00 0.00 77 1013.5
20260905074607 83 199 1.0 1.0 0.00 0.00 0.00 76 1013.6
20260905071603 83 201 0.0 0.0 0.00 0.00 0.00 76 1013.8
20260905064558 83 195 0.0 0.0 0.00 0.00 0.00 76 1014.1
20260905061557 84 192 0.0 0.0 0.00 0.00 0.00 74 1014.1
20260905054555 85 211 0.0 0.0 0.00 0.00 0.00 72 1013.9
20260905051553 86 202 1.0 1.0 0.00 0.00 0.00 69 1013.7
20260905044549 87 182 1.0 2.0 0.00 0.00 0.00 68 1013.8
20260905041546 88 217 1.0 1.0 0.00 0.00 0.00 66 1013.7
20260905034544 89 241 1.0 1.0 0.00 0.00 0.00 63 1013.7
20260905031543 89 183 0.0 0.0 0.00 0.00 0.00 61 1013.7
20260905024542 90 177 1.0 2.0 0.00 0.00 0.00 59 1013.5
20260905021538 90 286 0.0 0.0 0.00 0.00 0.00 59 1013.1
20260905014534 91 198 0.0 0.0 0.00 0.00 0.00 57 1012.5